Location: Newark
(25.4800°N, 85.7200°E)
Time: 05:11:08
(UTC+00:00)

Vanguard 1 Rocket - Pass Details

Date: 21 August 2019
Orbit: 651 x 4225 km, 34.3° (Epoch: 19 September)

Event Time Altitude Azimuth Distance (km) Brightness Sun altitude
Rises 06:49:05 0° 257° (WSW) 6,765 12.0 75.1°
Reaches altitude 10° 07:00:23 10° 227° (SW) 6,698 12.2 73.7°
Maximum altitude 07:04:55 11° 215° (SW) 6,893 12.3 73.1°
Drops below altitude 10° 07:09:49 10° 203° (SSW) 7,195 12.4 72.3°
Sets 07:25:08 0° 173° (S) 8,441 12.5 69.8°
